Regional Weather Roundup
Issued by NWS

Home | Current Version | Previous Version | Graphics & Text | Print | Product List | Glossary On
Versions: 1 2 3 4 5 6 7 8 9 10 11 12 13 14 15 16 17 18 19 20 21 22 23 24 25 26 27 28 29 30 31 32 33 34 35 36 37 38 39 40 41 42 43 44 45 46 47 48 49 50
000
ASUS43 KLOT 021406
RWRIL

ILLINOIS REGIONAL WEATHER ROUNDUP
NATIONAL WEATHER SERVICE CHICAGO/ROMEOVILLE IL
900 AM CDT THU OCT 02 2014

NOTE: "FAIR" INDICATES FEW OR NO CLOUDS BELOW 12,000 FEET WITH NO
SIGNIFICANT WEATHER AND/OR OBSTRUCTIONS TO VISIBILITY.

* THESE STATIONS ARE NOT UNDER NWS QUALITY CONTROL. THEY ALSO MAY NOT
  REPORT WEATHER SUCH AS PRECIPITATION OR FOG.

ILZ001-002-007-009-015-016-024-021500-
NORTHWEST ILLINOIS

CITY           SKY/WX    TMP DP  RH WIND       PRES   REMARKS
MOLINE         PTSUNNY   64  62  93 CALM      29.83S FOG
SAVANNA*       MOSUNNY   68  63  85 SW3       29.84S
$$

ILZ003-004-008-010-011-017-018-021500-
NORTH CENTRAL ILLINOIS

CITY           SKY/WX    TMP DP  RH WIND       PRES   REMARKS
ROCKFORD       CLOUDY    66  61  84 S9        29.87R
FREEPORT*      PTSUNNY   64  62  93 S3        29.87R FOG
ROCHELLE*      CLOUDY    66  62  87 S7        29.86S
DE KALB*       CLOUDY    64  62  92 S9        29.88R
PERU*          CLOUDY    66  65  94 CALM      29.86S
$$

ILZ005-006-012>014-019>023-021500-
NORTHEAST ILLINOIS

CITY           SKY/WX    TMP DP  RH WIND       PRES   REMARKS
CHICAGO-OHARE  CLOUDY    65  60  84 SE8       29.88R
CHICAGO-MIDWAY CLOUDY    68  62  81 S8        29.88F
AURORA         CLOUDY    68  63  84 SE8       29.88R HAZE
LANSING*       CLOUDY    64  60  88 SE3       29.90R
JOLIET*        CLOUDY    66  63  88 SE5       29.88S
WAUKEGAN       NOT AVBL
DUPAGE AIRPORT CLOUDY    67  62  84 S8        29.87S
KANKAKEE*      CLOUDY    65  64  96 CALM      29.89R FOG
WHEELING       CLOUDY    67  61  81 S8        29.89R
MORRIS*        CLOUDY    68  66  93 CALM      29.87R
ROMEOVILLE*    CLOUDY    66  63  88 SE6       29.88R
NORTHERLY ISL    N/A     66  60  81 SE5         N/A
$$

LMZ740>746-021500-
SOUTHERN LAKE MICHIGAN

STATION/POSITION SKY/WX   TEMP    WIND        PRES    VSBY  WAVE
                          AIR SEA DIR/SP/G                  HT/PER
                          (F)     (DEG/KT/KT) (MB)    (MI)  (FT/S)
SOUTHERN BUOY              63 62  160/ 17/ 21 1011.4F         4/ 5
WAUKEGAN HARBOR            62     160/ 12/ 13   N/A
HARRISON CRIB              65     140/  9/ 10   N/A
BURNHAM HARBOR             65     130/  6/  6   N/A
CALUMET HARBOR             65     150/  4/  6 1010.9F
MICHIGAN CITY              64     150/  7/  9   N/A
MICHIGAN CITY 6N           63 64  170/  6/  8   N/A           1/ 2
ST. JOSEPH                 63 63  170/  8/ 10   N/A           1/ 2
$$

ILZ025>027-034>036-040-047-049-050-058-095>099-021500-
WEST-CENTRAL ILLINOIS

CITY           SKY/WX    TMP DP  RH WIND       PRES   REMARKS
QUINCY         LGT RAIN  65  63  93 S9        29.84R
GALESBURG*     CLOUDY    64  64  99 CALM      29.85R
MACOMB*        CLOUDY    64  64 100 CALM      29.86F FOG
JACKSONVILLE*  CLOUDY    68  66  92 SW7       29.87R
PITTSFIELD*    LGT RAIN  66  64  91 S6        29.88R
$$

ILZ028>032-037-038-041>044-048-051>054-059>061-021500-
CENTRAL ILLINOIS

CITY           SKY/WX    TMP DP  RH WIND       PRES   REMARKS
PONTIAC        CLOUDY    68  66  94 CALM      29.87F
BLOOMINGTON    PTSUNNY   68  66  94 S15         N/A
DECATUR        CLOUDY    68  66  93 S13       29.87S
PEORIA         CLOUDY    68  64  87 S7        29.85S
LACON*         CLOUDY    66  64  93 SE3       29.85R
LINCOLN*       CLOUDY    68  66  93 S8        29.84S
SPRINGFIELD    CLOUDY    68  65  90 S10       29.85S
TAYLORVILLE    CLOUDY    66  64  94 S7        29.85F
$$

ILZ033-039-045-046-055>057-062-063-021500-
EAST-CENTRAL ILLINOIS

CITY           SKY/WX    TMP DP  RH WIND       PRES   REMARKS
DANVILLE*      CLOUDY    67  65  94 S7        29.86R FOG
RANTOUL*       CLOUDY    70  65  85 S12       29.88S
MATTOON        LGT RAIN  66  65  96 S13G22    29.91R
PARIS*         RAIN      65  65  99 S10G20    29.90S
$$

ILZ079-100>102-021500-
SOUTHWEST ILLINOIS

CITY           SKY/WX    TMP DP  RH WIND       PRES   REMARKS
ALTON          CLOUDY    66  66 100 SE14      29.88F
BELLEVILLE     PTSUNNY   70  70  99 NE6       29.89F
CAHOKIA*       CLOUDY    69  66  90 NE5       29.89F
SPARTA*        MOSUNNY   75  65  71 S6        29.91S
$$

ILZ064>066-069>071-074>076-080>082-084>086-088>090-092>094-021500-
SOUTH-CENTRAL ILLINOIS

CITY           SKY/WX    TMP DP  RH WIND       PRES   REMARKS
CARBONDALE     CLOUDY    75  65  70 S10       29.92S
CAIRO*         CLOUDY    76  65  69 S9        29.94R
EFFINGHAM*     TSTM      66  64  90 CALM      29.95R
MARION         PTSUNNY   75  64  69 S12       29.94S
CENTRALIA*     PTSUNNY   74  63  68 SE5       29.92S
SALEM*         RAIN      72  68  88 E5        29.93S
METROPOLIS*    SUNNY     76  65  70 S7        29.95R
$$

ILZ067-068-072-073-078-083-087-091-021500-
SOUTHEAST ILLINOIS

CITY           SKY/WX    TMP DP  RH WIND       PRES   REMARKS
LAWRENCEVILLE  PTSUNNY   69  62  78 N7        29.97S
FLORA*         SUNNY     70  62  77 E6        29.94S
FAIRFIELD*     SUNNY     73  64  73 SE5       29.93S
HARRISBURG*    SUNNY     76  64  67 S10       29.95R
ROBINSON*      CLOUDY    69  64  86 E7        29.96F
CARMI*         SUNNY     75  64  69 S10       29.94R
$$

ABBREVIATIONS USED IN REMARKS
   TC - TEMPERATURE IN CELSIUS
  WCI - WIND CHILL INDEX
   HX - HEAT INDEX
  VSB - VISIBILITY
$$



USA.gov is the U.S. government's official web portal to all federal, state and local government web resources and services.